Flag for Germany Weather past 2 weeks in Detmold, North Rhine-Westphalia, Germany

Now
74 °F

Clear.


Feels Like: 77 °F
Forecast: 54 / 69 °F
Wind: 1 mph from South

Location: Bad Lippspringe

Current Time: Aug 31, 2015 at 10:06:05 PM

Latest Report: Aug 31, 2015 at 9:00 PM


Visibility: 18 mi

Pressure: 29.76 "Hg

Humidity: 63%

Dew point: 60 °F

Location of DetmoldLocation

Historic Weather in Detmold — Graph

°F

Detmold temperature yesterday

Maximum temperature yesterday: 88 °F (at 4:00 PM)
Minimum temperature yesterday: 66 °F (at 4:00 AM)
Average temperature yesterday: 76 °F

Past Weeks' High & Low Weather Summary

 TemperatureHumidityPressure
High90 °F (Aug 31, 4:00 PM)100% (Aug 16, 10:00 PM)30.27 "Hg (Aug 16, 10:00 PM)
Low49 °F (Aug 29, 6:00 AM)27% (Aug 31, 4:00 PM)29.59 "Hg (Aug 24, 6:00 PM)
Average65 °F73%29.99 "Hg
* Reported Aug 16 9:00 PM — Aug 31 9:00 PM, Detmold, Weather by CustomWeather, © 2015

Note: Actual official high and low records may vary slightly from our data, if they occured in-between our weather recording intervals... More about our weather records

Advertising

Detmold weather history for previous 24 hours

 ConditionsComfort  
Time TempWeatherWind HumidityBarometerVisibility
9:00 PM
Mon, Aug 31
74 °FClear.1 mph63%29.76 "Hg18 mi
8:00 PM82 °FSunny.2 mph43%29.74 "Hg19 mi
7:00 PM87 °FSunny.6 mph33%29.74 "Hg11 mi
6:00 PM89 °FSunny.5 mph37%29.74 "Hg14 mi
5:00 PM90 °FSunny.5 mph33%29.75 "Hg9 mi
4:00 PM90 °FSunny.7 mph27%29.76 "Hg11 mi
3:00 PM90 °FSunny.7 mph32%29.78 "Hg7 mi
2:00 PM89 °FPassing clouds.5 mph37%29.80 "Hg11 mi
1:00 PM87 °FSunny.3 mph49%29.82 "Hg16 mi
12:00 PM85 °FScattered clouds.5 mph55%29.85 "Hg14 mi
11:00 AM81 °FSunny.5 mph62%29.87 "Hg10 mi
10:00 AM78 °FSunny.6 mph70%29.88 "Hg7 mi
9:00 AM76 °FSunny.1 mph77%29.90 "Hg11 mi
8:00 AM70 °FOvercast.1 mph89%29.93 "Hg7 mi
7:00 AM71 °FSunny.3 mph79%29.92 "Hg15 mi
5:00 AM70 °FFog.2 mph95%29.96 "Hg3 mi
4:00 AM68 °FOvercast.1 mph95%29.98 "Hg6 mi
3:00 AM67 °FFog.1 mph98%29.97 "Hg4 mi
2:00 AM68 °FPassing clouds.1 mph97%29.98 "Hg5 mi
1:00 AM68 °FOvercast.1 mph96%29.99 "Hg6 mi
11:00 PM
Sun, Aug 30
69 °FClear.1 mph97%29.98 "Hg6 mi
10:00 PM71 °FPassing clouds.1 mph95%29.99 "Hg9 mi
Weather by CustomWeather, © 2015

See weather overviewHow to use our weather pages